[[{"header":{"parameterUnit":"m.s-1","parameterCategory":1,"la1":30.2991,"la2":30.254,"lo1":-89.0895,"lo2":-89.0444,"dy":0.0017,"dx":0.0017,"nx":28,"ny":28,"refTime":"2024-08-24T09:00:00:Z","depth":0,"parameterNumber":2,"parameterNumberName":"U-component_of_WINDS"},"data":[0,0,0,0,0,0,0,0,0,0,0,0,0,0,0,0,0,0,0,0,0,0,0,0,0,0,0,0,0,0,0,0,0,0,0,0,0,0,0,0,0,0,0,0,0,0,0,0,0,0,0,0,0,0,0,0,0,0,-3.519,-3.519,0,-3.5163,-3.5163,-3.5162,-3.5028,-3.5025,-3.5022,-3.5019,-3.4994,-3.4997,-3.4999,0,0,0,0,0,0,0,0,0,0,0,0,0,-3.5129,-3.513,-3.519,-3.519,-3.5189,-3.5163,-3.5163,-3.5162,-3.5029,-3.5025,-3.5021,-3.5018,-3.4994,-3.4996,-3.4999,0,0,0,0,0,0,0,0,0,0,0,0,0,-3.5134,-3.5131,-3.519,-3.5119,-3.5113,-3.5163,-3.5163,-3.5162,-3.503,-3.5025,-3.502,-3.5016,-3.4993,-3.4996,-3.5,-3.5116,0,0,-3.501,-3.5012,0,0,0,0,0,0,0,0,-3.5134,-3.5136,-3.513,-3.5124,-3.5117,-3.5094,-3.5132,-3.5147,-3.5031,-3.5061,-3.5019,-3.5013,-3.5032,-3.5032,-3.5037,-3.5115,-3.5114,-3.501,-3.5013,-3.5014,-3.5015,0,0,0,0,0,0,0,-3.5134,-3.5137,-3.5179,-3.513,-3.5122,-3.509,-3.5086,-3.5134,-3.5074,-3.5058,-3.5049,-3.5047,-3.5027,-3.5034,-3.5036,-3.5114,-3.501,-3.5013,-3.5016,-3.5017,-3.5287,-3.5292,0,0,0,0,0,0,-3.5143,-3.5137,-3.518,-3.5178,-3.5114,-3.5095,-3.509,-3.5106,-3.5073,-3.5063,-3.5051,-3.5041,-3.5031,-3.5032,-3.5034,-3.5169,-3.5014,-3.5017,-3.5019,-3.5282,-3.5289,-3.5294,0,0,0,0,0,0,-3.5142,-3.5148,-3.5181,-3.5155,-3.5157,-3.5101,-3.5121,-3.5108,-3.5115,-3.5067,-3.5056,-3.5069,-3.5027,-3.5029,-3.5097,-3.5166,-3.5019,-3.5022,-3.5276,-3.5284,-3.5291,-3.544,0,0,0,0,0,0,-3.5141,-3.5148,-3.5191,-3.5157,-3.5159,-3.5244,-3.5125,-3.5111,-3.5121,-3.5107,-3.5081,-3.5072,-3.5023,-3.5093,-3.51,-3.5168,-3.5025,-3.527,-3.528,-3.5289,-3.5428,-3.5451,-3.5471,0,0,0,0,0,-3.5139,-3.5235,-3.5194,-3.52,-3.5211,-3.5248,-3.5249,-3.519,-3.5127,-3.517,-3.514,-3.5073,-3.5158,-3.5101,-3.5108,-3.5178,-3.5265,-3.5277,-3.5288,-3.5419,-3.5447,-3.5471,0,0,0,0,0,0,-3.5279,-3.5229,-3.5183,-3.5271,-3.5265,-3.5225,-3.5278,-3.5222,-3.5234,-3.5221,-3.5147,-3.5143,-3.5221,-3.5206,-3.5144,-3.529,-3.52,-3.5214,-3.5297,-3.5323,-3.5344,-3.5346,-3.5028,0,0,0,0,0,-3.532,-3.5353,-3.5308,-3.5389,-3.5388,-3.5334,-3.5348,-3.5303,-3.5294,-3.5291,-3.5265,-3.526,-3.5285,-3.5303,-3.5324,-3.5426,-3.5419,-3.5478,-3.55,-3.5517,-3.553,-3.5583,-3.5609,-3.5332,-3.5332,-3.5331,0,0,-3.5405,-3.5382,-3.5407,-3.5417,-3.5407,-3.5444,-3.5333,-3.5376,-3.5403,-3.5298,-3.536,-3.5341,-3.5331,-3.5416,-3.5452,-3.5406,-3.5605,-3.5532,-3.5547,-3.5549,-3.5598,-3.5624,-3.5647,-3.534,-3.5338,-3.5337,0,0,-3.5579,-3.5564,-3.563,-3.5623,-3.5609,-3.5572,-3.5589,-3.5558,-3.5542,-3.5603,-3.5524,-3.5556,-3.5601,-3.5597,-3.5601,-3.5775,-3.5714,-3.5783,-3.5895,-3.5948,-3.597,-3.5989,-3.6051,-3.6074,-3.5796,-3.5797,-3.5797,0,-3.5686,-3.5737,-3.5672,-3.5721,-3.5728,-3.5634,-3.5701,-3.5697,-3.5691,-3.5699,-3.5647,-3.5701,-3.5688,-3.5771,-3.5814,-3.582,-3.5837,-3.5786,-3.5972,-3.599,-3.6007,-3.6066,-3.6089,-3.5805,-3.5804,-3.5803,-3.5802,0,-3.5871,-3.5908,-3.5963,-3.5959,-3.5972,-3.603,-3.5975,-3.5996,-3.5951,-3.592,-3.5985,-3.5965,-3.598,-3.5997,-3.5953,-3.6075,-3.6046,-3.5985,-3.5893,-3.6043,-3.6097,-3.6119,-3.5817,-3.5814,-3.5812,-3.581,0,0,-3.613,-3.609,-3.6111,-3.6109,-3.6087,-3.6115,-3.617,-3.6184,-3.6204,-3.6204,-3.6248,-3.6289,-3.6232,-3.6236,-3.6191,-3.6238,-3.6377,-3.617,-3.6169,-3.6209,-3.6511,-3.6557,-3.6584,-3.6337,-3.6341,-3.6345,-3.6512,0,-3.6296,-3.6385,-3.6328,-3.6427,-3.6461,-3.6373,-3.642,-3.6413,-3.6387,-3.6412,-3.6383,-3.6413,-3.6336,-3.6338,-3.638,-3.6352,-3.6437,-3.6339,-3.6378,-3.6381,-3.6383,-3.6612,-3.6661,-3.6819,-3.6532,-3.6536,-3.6538,0,-3.6501,-3.6509,-3.6611,-3.6583,-3.6595,-3.6639,-3.6647,-3.6673,-3.6664,-3.6641,-3.6647,-3.6591,-3.6644,-3.6554,-3.6626,-3.656,-3.6573,-3.6562,-3.6567,-3.6568,-3.6468,-3.6619,-3.6868,-3.6892,-3.6571,-3.6568,-3.6566,0,-3.668,-3.6717,-3.6782,-3.6783,-3.6752,-3.6785,-3.6774,-3.676,-3.6772,-3.6781,-3.6788,-3.6803,-3.6812,-3.6825,-3.6775,-3.6714,-3.6854,-3.676,-3.6838,-3.6839,-3.687,-3.6869,-3.7125,-3.688,-3.688,-3.6879,-3.6879,0,-3.687,-3.6936,-3.6862,-3.6903,-3.6974,-3.6909,-3.6982,-3.6962,-3.6951,-3.6986,-3.6912,-3.6947,-3.6879,-3.6908,-3.687,-3.6936,-3.694,-3.6924,-3.6913,-3.693,-3.6932,-3.6937,-3.6925,-3.6886,-3.6884,-3.6883,-3.6882,0,-3.7082,-3.7035,-3.7101,-3.7067,-3.706,-3.7114,-3.7085,-3.7122,-3.7091,-3.7137,-3.7145,-3.7096,-3.7127,-3.7078,-3.7103,-3.7077,-3.7169,-3.7141,-3.7172,-3.7163,-3.7244,-3.7237,-3.7512,-3.7545,-3.728,-3.7282,-3.7284,0,-3.7206,-3.7255,-3.7226,-3.7244,-3.7237,-3.7268,-3.728,-3.7219,-3.7235,-3.7229,-3.7267,-3.7291,-3.7307,-3.736,-3.7328,-3.7347,-3.7319,-3.7414,-3.7321,-3.7337,-3.732,-3.7317,-3.7322,-3.7433,-3.7436,-3.7438,-3.744,0,-3.7432,-3.7407,-3.7426,-3.744,-3.7456,-3.7463,-3.7465,-3.7485,-3.742,-3.7443,-3.7472,-3.7485,-3.751,-3.7536,-3.7547,-3.7537,-3.7479,-3.747,-3.7489,-3.7507,-3.7523,-3.7515,-3.7223,-3.7464,-3.7462,-3.746,-3.7459,-3.7458,-3.7603,-3.7642,-3.7629,-3.7654,-3.7649,-3.7653,-3.7685,-3.7659,-3.7682,-3.7697,-3.766,-3.77,-3.769,-3.7699,-3.7696,-3.7726,-3.7684,-3.7712,-3.7719,-3.7726,-3.7739,-3.7519,-3.7728,-3.7727,-3.7727,-3.7726,-3.7725,0,-3.7825,-3.7812,-3.7836,-3.784,-3.7861,-3.7804,-3.7804,-3.7825,-3.786,-3.7855,-3.7873,-3.7908,-3.7932,-3.7903,-3.7922,-3.7952,-3.7926,-3.7959,-3.7956,-3.7955,-3.7775,-3.7757,-3.798,-3.798,-3.798,-3.798,-3.798,-3.798,-3.7942,-3.8006,-3.7979,-3.804,-3.8026,-3.8063,-3.8068,-3.8072,-3.8068,-3.811,-3.813,-3.811,-3.8096,-3.8114,-3.8134,-3.8125,-3.8136,-3.8178,-3.816,-3.7993,-3.7968,-3.7944,-3.7926,-3.8181,-3.8182,-3.8337,-3.8339,-3.834]},{"header":{"parameterUnit":"m.s-1","parameterCategory":1,"la1":30.2991,"la2":30.254,"lo1":-89.0895,"lo2":-89.0444,"dy":0.0017,"dx":0.0017,"nx":28,"ny":28,"refTime":"2024-08-24T09:00:00:Z","depth":0,"parameterNumber":3,"parameterNumberName":"V-component_of_WINDS"},"data":[0,0,0,0,0,0,0,0,0,0,0,0,0,0,0,0,0,0,0,0,0,0,0,0,0,0,0,0,0,0,0,0,0,0,0,0,0,0,0,0,0,0,0,0,0,0,0,0,0,0,0,0,0,0,0,0,0,0,1.7164,1.7164,0,1.7136,1.7136,1.7136,1.714,1.7141,1.7141,1.7142,1.7109,1.7107,1.7106,0,0,0,0,0,0,0,0,0,0,0,0,0,1.7217,1.7216,1.7164,1.7164,1.7163,1.7137,1.7136,1.7136,1.714,1.7141,1.7141,1.7142,1.7109,1.7107,1.7106,0,0,0,0,0,0,0,0,0,0,0,0,0,1.7192,1.7216,1.7164,1.7162,1.7162,1.7137,1.7136,1.7136,1.714,1.7141,1.7142,1.7142,1.711,1.7108,1.7106,1.7079,0,0,1.71,1.7099,0,0,0,0,0,0,0,0,1.7194,1.719,1.7163,1.7163,1.7162,1.7143,1.7143,1.7116,1.714,1.7148,1.7142,1.7143,1.7119,1.7116,1.7109,1.7077,1.7076,1.7099,1.7098,1.7097,1.7097,0,0,0,0,0,0,0,1.7195,1.7191,1.7153,1.7163,1.7162,1.7162,1.7159,1.7138,1.713,1.7148,1.7148,1.7145,1.7119,1.7111,1.7109,1.7075,1.7099,1.7098,1.7096,1.7096,1.702,1.7019,0,0,0,0,0,0,1.7198,1.7193,1.7154,1.7152,1.718,1.716,1.7157,1.7148,1.713,1.7128,1.7144,1.7145,1.7114,1.7111,1.7107,1.7075,1.7097,1.7095,1.7094,1.7021,1.702,1.7019,0,0,0,0,0,0,1.7199,1.7195,1.7155,1.7173,1.7168,1.7159,1.7148,1.7147,1.714,1.7128,1.7126,1.7138,1.7115,1.711,1.7086,1.7074,1.7094,1.7093,1.7022,1.7021,1.7019,1.7009,0,0,0,0,0,0,1.7201,1.7195,1.7185,1.7172,1.7167,1.7135,1.7147,1.7146,1.7137,1.7138,1.7121,1.7119,1.7115,1.7089,1.7084,1.7071,1.7091,1.7023,1.7021,1.702,1.701,1.7007,1.7005,0,0,0,0,0,1.7203,1.7182,1.7185,1.718,1.7154,1.7134,1.7131,1.7128,1.7136,1.7125,1.7118,1.712,1.7076,1.7087,1.7081,1.7067,1.7024,1.7022,1.702,1.7011,1.7008,1.7005,0,0,0,0,0,0,1.7191,1.718,1.7183,1.7158,1.7147,1.7135,1.7122,1.7124,1.711,1.7111,1.7106,1.7103,1.7078,1.7071,1.7082,1.7041,1.7051,1.7048,1.7046,1.7043,1.704,1.7042,1.7089,0,0,0,0,0,1.7186,1.7172,1.7163,1.7141,1.7136,1.713,1.7121,1.712,1.7108,1.7103,1.7094,1.7081,1.7065,1.7054,1.7038,1.701,1.7006,1.6998,1.6995,1.6993,1.699,1.6975,1.6971,1.7013,1.7013,1.7013,0,0,1.7174,1.7167,1.7158,1.7139,1.713,1.7115,1.7126,1.7109,1.7097,1.71,1.7077,1.707,1.7056,1.703,1.7018,1.7022,1.6978,1.6991,1.6989,1.6987,1.6973,1.6969,1.6965,1.7012,1.7012,1.7012,0,0,1.7145,1.7138,1.712,1.7112,1.7101,1.7097,1.7093,1.7081,1.7077,1.7055,1.7057,1.7043,1.7014,1.7004,1.6995,1.6965,1.6966,1.696,1.6946,1.6931,1.6928,1.6925,1.6913,1.691,1.6958,1.6958,1.6958,0,1.7131,1.711,1.711,1.7093,1.7085,1.709,1.7071,1.7063,1.7046,1.7039,1.7045,1.7011,1.7002,1.6974,1.6967,1.696,1.6954,1.6961,1.6929,1.6926,1.6923,1.6912,1.6908,1.6957,1.6957,1.6957,1.6957,0,1.7093,1.7078,1.7065,1.7051,1.7041,1.7023,1.702,1.701,1.7011,1.7006,1.6984,1.6973,1.6956,1.6949,1.6949,1.6921,1.6925,1.693,1.694,1.6918,1.6908,1.6904,1.6956,1.6956,1.6956,1.6957,0,0,1.7053,1.7042,1.7037,1.7031,1.7019,1.7007,1.699,1.6975,1.6966,1.6955,1.6939,1.6917,1.6922,1.6912,1.6911,1.6898,1.6875,1.6905,1.6905,1.6899,1.6844,1.6839,1.6834,1.6877,1.6876,1.6876,1.6845,0,1.7022,1.6993,1.6994,1.6966,1.6952,1.6958,1.6943,1.6934,1.693,1.6917,1.6912,1.6896,1.6905,1.6899,1.6887,1.688,1.6864,1.6883,1.6861,1.686,1.6863,1.6829,1.6823,1.6795,1.6841,1.684,1.684,0,1.6981,1.6971,1.6942,1.6935,1.6929,1.6915,1.6902,1.689,1.688,1.6878,1.6869,1.687,1.6852,1.6864,1.6839,1.6852,1.6843,1.6839,1.6838,1.6834,1.6847,1.6823,1.6785,1.6781,1.6834,1.6834,1.6835,0,1.6954,1.6933,1.6913,1.6908,1.6899,1.6889,1.6885,1.6876,1.6867,1.6856,1.685,1.6836,1.6828,1.6816,1.6814,1.6823,1.6788,1.68,1.6785,1.6785,1.6775,1.6775,1.6734,1.6772,1.6772,1.6772,1.6772,0,1.6918,1.69,1.6901,1.6889,1.6869,1.6871,1.6851,1.6847,1.6839,1.6826,1.683,1.6817,1.6815,1.6801,1.6799,1.6778,1.6775,1.6772,1.6771,1.677,1.6771,1.6763,1.6764,1.6771,1.6771,1.6772,1.6772,0,1.6882,1.6883,1.6862,1.6856,1.6854,1.684,1.6834,1.6822,1.682,1.6803,1.6799,1.6795,1.6779,1.6777,1.6757,1.6756,1.6731,1.6733,1.6734,1.6734,1.6718,1.6719,1.6669,1.6663,1.6707,1.6706,1.6706,0,1.6859,1.6845,1.6839,1.6831,1.6827,1.6814,1.6806,1.6808,1.6799,1.6788,1.6777,1.6763,1.6751,1.6726,1.672,1.6706,1.6707,1.669,1.6704,1.6704,1.6705,1.6705,1.6703,1.6687,1.6686,1.6686,1.6686,0,1.6816,1.6818,1.6807,1.6796,1.6787,1.6779,1.6771,1.6764,1.6765,1.6754,1.674,1.6731,1.6713,1.6698,1.6684,1.6678,1.6681,1.6682,1.6677,1.6675,1.6676,1.6675,1.6725,1.6682,1.6683,1.6683,1.6683,1.6683,1.6785,1.6773,1.6768,1.6756,1.6751,1.6744,1.6733,1.673,1.6719,1.6705,1.6707,1.6691,1.6682,1.6665,1.6658,1.6645,1.665,1.6643,1.6641,1.6639,1.6637,1.6681,1.6642,1.6643,1.6643,1.6643,1.6643,0,1.6741,1.6739,1.6728,1.6718,1.6709,1.6716,1.6708,1.6699,1.6685,1.6678,1.6667,1.6651,1.6637,1.6632,1.6618,1.6608,1.6609,1.6604,1.6604,1.6603,1.6634,1.6639,1.6604,1.6604,1.6604,1.6604,1.6604,1.6604,1.6718,1.6699,1.67,1.6679,1.6677,1.6662,1.6657,1.665,1.6645,1.6627,1.6616,1.6614,1.6607,1.6594,1.6581,1.658,1.6574,1.6568,1.6567,1.6596,1.66,1.6604,1.6608,1.6567,1.6567,1.6537,1.6537,1.6536]}]]